EXS74MP EGCC-LCLK

Flight info

Callsign EXS74MP
Flight time 4h 25m
Altitude 33000
Route LISTO L612 HON/N0464F330 L15 BIG UL9 KONAN DCT KOK UL607 FERDI DCT REMBA DCT RITAX DCT BANUX DCT VEKIR DCT LATLO DCT OBEDI DCT BABOL DCT ELGEB/N0462F350 DCT SOSEK DCT NISVA DCT VIT DCT RODIP UN131 PIBOM DCT BELGI UN131 KULAR UT39 TOMBI DCT DASNI M601 BONEK
Aircraft B738/M-SDE2E3FGHIRWXY/LB1

Departure

Time 2026-05-04 12:41
Airport Manchester Airport (EGCC)

Arrival

Time 2026-05-04 17:07
Airport Larnaca International Airport (LCLK)
Time Latitude Longitude Altitude Speed Heading
2026-05-04 12:10 53.36838 -2.28886 254 ft 0 kts 135°
2026-05-04 12:22 53.36841 -2.28892 254 ft 3 kts 135°
2026-05-04 12:22 53.36857 -2.28919 254 ft 4 kts 139°
2026-05-04 12:23 53.36873 -2.28929 254 ft 4 kts 220°
2026-05-04 12:23 53.36884 -2.28912 254 ft 3 kts 225°
2026-05-04 12:23 53.36870 -2.28934 254 ft 0 kts 225°
2026-05-04 12:26 53.36870 -2.28935 254 ft 1 kts 225°
2026-05-04 12:26 53.36852 -2.28965 254 ft 7 kts 225°
2026-05-04 12:26 53.36803 -2.29021 254 ft 9 kts 202°
2026-05-04 12:27 53.36746 -2.29035 254 ft 9 kts 156°
2026-05-04 12:27 53.36703 -2.28969 254 ft 8 kts 134°
2026-05-04 12:27 53.36675 -2.28922 254 ft 4 kts 134°
2026-05-04 12:27 53.36652 -2.28903 254 ft 3 kts 164°
2026-05-04 12:28 53.36645 -2.28899 254 ft 0 kts 163°
2026-05-04 12:31 53.36644 -2.28898 254 ft 1 kts 163°
2026-05-04 12:31 53.36622 -2.28876 254 ft 7 kts 141°
2026-05-04 12:31 53.36587 -2.28799 254 ft 9 kts 117°
2026-05-04 12:31 53.36552 -2.28712 254 ft 9 kts 133°
2026-05-04 12:32 53.36509 -2.28640 254 ft 9 kts 134°
2026-05-04 12:32 53.36426 -2.28504 254 ft 8 kts 144°
2026-05-04 12:32 53.36374 -2.28478 254 ft 8 kts 174°
2026-05-04 12:33 53.36326 -2.28439 254 ft 8 kts 140°
2026-05-04 12:33 53.36288 -2.28373 254 ft 9 kts 135°
2026-05-04 12:33 53.36241 -2.28297 254 ft 10 kts 135°
2026-05-04 12:33 53.36186 -2.28203 254 ft 12 kts 134°
2026-05-04 12:34 53.36125 -2.28099 254 ft 13 kts 136°
2026-05-04 12:34 53.36058 -2.27999 254 ft 13 kts 139°
2026-05-04 12:34 53.35993 -2.27902 254 ft 12 kts 138°
2026-05-04 12:34 53.35916 -2.27848 254 ft 12 kts 178°
2026-05-04 12:35 53.35829 -2.27861 251 ft 14 kts 186°
2026-05-04 12:35 53.35729 -2.27877 245 ft 14 kts 186°
2026-05-04 12:35 53.35660 -2.27889 241 ft 10 kts 186°
2026-05-04 12:35 53.35599 -2.27954 238 ft 11 kts 227°
2026-05-04 12:36 53.35546 -2.28061 234 ft 13 kts 225°
2026-05-04 12:36 53.35470 -2.28142 233 ft 13 kts 201°
2026-05-04 12:36 53.35383 -2.28167 234 ft 13 kts 190°
2026-05-04 12:36 53.35300 -2.28217 232 ft 13 kts 208°
2026-05-04 12:37 53.35229 -2.28307 231 ft 13 kts 225°
2026-05-04 12:37 53.35171 -2.28427 227 ft 14 kts 231°
2026-05-04 12:37 53.35106 -2.28561 227 ft 15 kts 231°
2026-05-04 12:37 53.35041 -2.28692 227 ft 14 kts 229°
2026-05-04 12:38 53.34974 -2.28810 225 ft 14 kts 226°
2026-05-04 12:38 53.34910 -2.28923 223 ft 14 kts 226°
2026-05-04 12:38 53.34840 -2.29049 217 ft 16 kts 229°
2026-05-04 12:38 53.34770 -2.29183 214 ft 15 kts 229°
2026-05-04 12:39 53.34694 -2.29314 209 ft 14 kts 212°
2026-05-04 12:39 53.34616 -2.29343 211 ft 11 kts 178°
2026-05-04 12:39 53.34552 -2.29295 215 ft 8 kts 137°
2026-05-04 12:39 53.34541 -2.29224 213 ft 6 kts 66°
2026-05-04 12:40 53.34553 -2.29195 215 ft 0 kts 52°
2026-05-04 12:40 53.34606 -2.29084 213 ft 39 kts 51°
2026-05-04 12:40 53.34927 -2.28420 232 ft 107 kts 51°
2026-05-04 12:40 53.35526 -2.27186 254 ft 163 kts 49°
2026-05-04 12:41 53.36294 -2.25617 755 ft 179 kts 51°
2026-05-04 12:41 53.37073 -2.23974 1525 ft 189 kts 51°
2026-05-04 12:41 53.37659 -2.21946 2055 ft 207 kts 84°
2026-05-04 12:41 53.37267 -2.19588 2201 ft 222 kts 129°
2026-05-04 12:42 53.36024 -2.17960 2382 ft 232 kts 148°
2026-05-04 12:42 53.34525 -2.16924 2669 ft 237 kts 173°
2026-05-04 12:42 53.32871 -2.16847 3011 ft 243 kts 184°
2026-05-04 12:42 53.31126 -2.17128 3209 ft 258 kts 186°
2026-05-04 12:43 53.29325 -2.17459 3702 ft 262 kts 186°
2026-05-04 12:43 53.27509 -2.17786 4250 ft 264 kts 186°
2026-05-04 12:43 53.25674 -2.18102 4788 ft 265 kts 186°
2026-05-04 12:43 53.22555 -2.18606 5408 ft 269 kts 186°
2026-05-04 12:44 53.19267 -2.19127 6412 ft 272 kts 186°
2026-05-04 12:44 53.14812 -2.19784 7670 ft 277 kts 180°
2026-05-04 12:44 53.12813 -2.18996 8214 ft 281 kts 158°
2026-05-04 12:44 53.08912 -2.16261 9408 ft 288 kts 158°
2026-05-04 12:45 53.06411 -2.14502 10181 ft 291 kts 158°
2026-05-04 12:45 53.05268 -2.13701 10373 ft 299 kts 158°
2026-05-04 12:45 53.03288 -2.12319 10508 ft 317 kts 158°
2026-05-04 12:45 53.01200 -2.10868 10649 ft 334 kts 158°
2026-05-04 12:46 52.98998 -2.09343 10781 ft 351 kts 158°
2026-05-04 12:46 52.96690 -2.07749 10901 ft 367 kts 158°
2026-05-04 12:46 52.94287 -2.06094 11023 ft 381 kts 158°
2026-05-04 12:46 52.91797 -2.04382 11265 ft 391 kts 158°
2026-05-04 12:47 52.89271 -2.02647 11718 ft 394 kts 158°
2026-05-04 12:47 52.86736 -2.00908 12379 ft 391 kts 158°
2026-05-04 12:47 52.84255 -1.99209 13409 ft 380 kts 158°
2026-05-04 12:47 52.81836 -1.97554 14337 ft 373 kts 159°
2026-05-04 12:48 52.79435 -1.95916 14988 ft 374 kts 159°
2026-05-04 12:48 52.77011 -1.94265 15529 ft 378 kts 159°
2026-05-04 12:48 52.74565 -1.92600 16051 ft 381 kts 159°
2026-05-04 12:48 52.72112 -1.90932 16700 ft 381 kts 159°
2026-05-04 12:49 52.69654 -1.89262 17236 ft 384 kts 159°
2026-05-04 12:49 52.67204 -1.87601 17691 ft 388 kts 159°
2026-05-04 12:49 52.64694 -1.85900 18217 ft 391 kts 159°
2026-05-04 12:49 52.62173 -1.84194 18698 ft 393 kts 159°
2026-05-04 12:50 52.59629 -1.82474 19168 ft 396 kts 159°
2026-05-04 12:50 52.57073 -1.80748 19621 ft 398 kts 158°
2026-05-04 12:50 52.54500 -1.79013 20060 ft 401 kts 158°
2026-05-04 12:50 52.51916 -1.77273 20520 ft 402 kts 158°
2026-05-04 12:51 52.49317 -1.75525 20977 ft 404 kts 159°
2026-05-04 12:51 52.46709 -1.73773 21409 ft 406 kts 159°
2026-05-04 12:51 52.44078 -1.72007 21817 ft 409 kts 159°
2026-05-04 12:51 52.41437 -1.70237 22231 ft 411 kts 159°
2026-05-04 12:52 52.38777 -1.68456 22637 ft 414 kts 158°
2026-05-04 12:52 52.36247 -1.66320 23010 ft 417 kts 148°
2026-05-04 12:52 52.33913 -1.63467 23407 ft 421 kts 139°
2026-05-04 12:52 52.31844 -1.60056 23765 ft 424 kts 135°
2026-05-04 12:53 52.29819 -1.56537 24084 ft 426 kts 134°
2026-05-04 12:53 52.27788 -1.52994 24403 ft 428 kts 134°
2026-05-04 12:53 52.25747 -1.49455 24824 ft 426 kts 135°
2026-05-04 12:53 52.23706 -1.45942 25179 ft 427 kts 135°
2026-05-04 12:54 52.21643 -1.42418 25376 ft 432 kts 135°
2026-05-04 12:54 52.19554 -1.38867 25629 ft 435 kts 135°
2026-05-04 12:54 52.17455 -1.35309 25940 ft 436 kts 135°
2026-05-04 12:54 52.15348 -1.31743 26247 ft 437 kts 135°
2026-05-04 12:55 52.13232 -1.28166 26517 ft 439 kts 136°
2026-05-04 12:55 52.11108 -1.24580 26777 ft 442 kts 136°
2026-05-04 12:55 52.09695 -1.22198 26949 ft 443 kts 136°
2026-05-04 12:55 52.07546 -1.18576 27207 ft 445 kts 136°
2026-05-04 12:56 52.05395 -1.14957 27465 ft 446 kts 136°
2026-05-04 12:56 52.03232 -1.11324 27741 ft 448 kts 136°
2026-05-04 12:56 52.01053 -1.07725 28094 ft 446 kts 137°
2026-05-04 12:56 51.98858 -1.04169 28430 ft 446 kts 137°
2026-05-04 12:57 51.96822 -1.00819 28733 ft 446 kts 136°
2026-05-04 12:57 51.94667 -0.97210 29073 ft 445 kts 137°
2026-05-04 12:57 51.92523 -0.93605 29385 ft 445 kts 137°
2026-05-04 12:57 51.90372 -0.89992 29687 ft 445 kts 137°
2026-05-04 12:58 51.88221 -0.86394 30046 ft 444 kts 137°
2026-05-04 12:58 51.86075 -0.82816 30372 ft 442 kts 137°
2026-05-04 12:58 51.83934 -0.79255 30637 ft 442 kts 137°
2026-05-04 12:58 51.81781 -0.75684 30863 ft 442 kts 137°
2026-05-04 12:59 51.79637 -0.72133 31158 ft 440 kts 137°
2026-05-04 12:59 51.77514 -0.68625 31602 ft 435 kts 137°
2026-05-04 12:59 51.75397 -0.65141 31860 ft 435 kts 137°
2026-05-04 12:59 51.73272 -0.61652 31993 ft 437 kts 137°
2026-05-04 13:00 51.71133 -0.58145 32166 ft 438 kts 137°
2026-05-04 13:00 51.69025 -0.54691 32408 ft 437 kts 137°
2026-05-04 13:00 51.66896 -0.51205 32677 ft 436 kts 137°
2026-05-04 13:00 51.64766 -0.47721 32897 ft 436 kts 137°
2026-05-04 13:01 51.62635 -0.44242 33023 ft 437 kts 137°
2026-05-04 13:01 51.58320 -0.37211 33028 ft 444 kts 137°
2026-05-04 13:02 51.53961 -0.30128 33028 ft 446 kts 137°
2026-05-04 13:02 51.49585 -0.23036 33018 ft 447 kts 137°
2026-05-04 13:03 51.45212 -0.15969 33013 ft 446 kts 137°
2026-05-04 13:03 51.40848 -0.08935 33019 ft 444 kts 137°
2026-05-04 13:04 51.36526 -0.01989 33020 ft 442 kts 137°
2026-05-04 13:04 51.34567 0.01819 33003 ft 445 kts 126°
2026-05-04 13:04 51.33086 0.06174 33024 ft 448 kts 117°
2026-05-04 13:04 51.32065 0.10887 32984 ft 452 kts 106°
2026-05-04 13:05 51.31463 0.15817 32998 ft 452 kts 104°
2026-05-04 13:05 51.30367 0.25550 32984 ft 451 kts 104°
2026-05-04 13:06 51.29154 0.35368 32967 ft 450 kts 105°
2026-05-04 13:06 51.27961 0.45180 32994 ft 450 kts 104°
2026-05-04 13:07 51.26769 0.54992 32991 ft 450 kts 105°
2026-05-04 13:07 51.25520 0.64803 33001 ft 451 kts 106°
2026-05-04 13:08 51.24216 0.74627 33001 ft 453 kts 105°
2026-05-04 13:08 51.22974 0.84504 33004 ft 455 kts 105°
2026-05-04 13:09 51.21730 0.94419 33018 ft 456 kts 105°
2026-05-04 13:09 51.20471 1.04260 33009 ft 456 kts 106°
2026-05-04 13:10 51.19172 1.14169 33019 ft 456 kts 106°
2026-05-04 13:10 51.17866 1.24082 33011 ft 457 kts 106°
2026-05-04 13:11 51.16555 1.33981 33017 ft 457 kts 106°
2026-05-04 13:11 51.15758 1.44056 33007 ft 460 kts 98°
2026-05-04 13:12 51.15355 1.54252 33011 ft 460 kts 98°
2026-05-04 13:12 51.14915 1.64416 33013 ft 460 kts 98°
2026-05-04 13:13 51.14418 1.74510 33016 ft 459 kts 99°
2026-05-04 13:13 51.13899 1.84633 33012 ft 459 kts 99°
2026-05-04 13:14 51.13375 1.94762 33009 ft 458 kts 99°
2026-05-04 13:14 51.12842 2.04880 33016 ft 459 kts 99°
2026-05-04 13:15 51.12302 2.14998 33023 ft 459 kts 99°
2026-05-04 13:15 51.11753 2.25134 33016 ft 460 kts 99°
2026-05-04 13:16 51.11195 2.35275 33009 ft 460 kts 99°
2026-05-04 13:16 51.10629 2.45422 33005 ft 460 kts 100°
2026-05-04 13:17 51.10058 2.55519 33010 ft 461 kts 100°
2026-05-04 13:17 51.09418 2.65667 33012 ft 459 kts 104°
2026-05-04 13:18 51.07804 2.75395 33004 ft 454 kts 112°
2026-05-04 13:18 51.05967 2.84989 32999 ft 454 kts 112°
2026-05-04 13:19 51.04164 2.94607 33015 ft 454 kts 112°
2026-05-04 13:19 51.02391 3.04244 33007 ft 454 kts 112°
2026-05-04 13:20 51.00622 3.13865 33001 ft 454 kts 112°
2026-05-04 13:20 50.98841 3.23495 32986 ft 455 kts 112°
2026-05-04 13:21 50.97051 3.33116 32964 ft 454 kts 112°
2026-05-04 13:21 50.95255 3.42717 32975 ft 454 kts 112°
2026-05-04 13:22 50.93452 3.52310 32984 ft 454 kts 112°
2026-05-04 13:22 50.91648 3.61861 32972 ft 455 kts 112°
2026-05-04 13:23 50.89822 3.71456 32976 ft 455 kts 112°
2026-05-04 13:23 50.87982 3.81052 32960 ft 456 kts 112°
2026-05-04 13:24 50.86132 3.90667 32969 ft 456 kts 112°
2026-05-04 13:24 50.84273 4.00284 32988 ft 457 kts 112°
2026-05-04 13:25 50.81475 4.14671 32992 ft 459 kts 113°
2026-05-04 13:25 50.79585 4.24329 32979 ft 460 kts 113°
2026-05-04 13:26 50.77689 4.33974 32985 ft 459 kts 113°
2026-05-04 13:26 50.75786 4.43602 32985 ft 458 kts 113°
2026-05-04 13:27 50.73881 4.53194 32988 ft 456 kts 113°
2026-05-04 13:27 50.71978 4.62731 32981 ft 455 kts 113°
2026-05-04 13:28 50.70082 4.72185 32979 ft 457 kts 113°
2026-05-04 13:28 50.68153 4.81753 32984 ft 458 kts 113°
2026-05-04 13:29 50.65734 4.90976 32977 ft 451 kts 128°
2026-05-04 13:29 50.61795 4.98479 32984 ft 439 kts 141°
2026-05-04 13:30 50.57416 5.05119 32985 ft 435 kts 141°
2026-05-04 13:30 50.53113 5.11686 32944 ft 432 kts 141°
2026-05-04 13:31 50.48834 5.18272 33010 ft 432 kts 141°
2026-05-04 13:31 50.44423 5.24799 33015 ft 438 kts 143°
2026-05-04 13:32 50.40140 5.31668 32983 ft 439 kts 139°
2026-05-04 13:32 50.35832 5.38374 32985 ft 434 kts 142°
2026-05-04 13:33 50.31480 5.44915 32977 ft 432 kts 142°
2026-05-04 13:33 50.27163 5.51437 32988 ft 431 kts 141°
2026-05-04 13:34 50.22865 5.57955 32982 ft 430 kts 141°
2026-05-04 13:34 50.18557 5.64479 32994 ft 432 kts 141°
2026-05-04 13:35 50.12078 5.74262 32990 ft 435 kts 141°
2026-05-04 13:36 50.07875 5.81147 32991 ft 445 kts 131°
2026-05-04 13:36 50.04783 5.89649 33001 ft 457 kts 122°
2026-05-04 13:37 50.01990 5.98543 32990 ft 457 kts 121°
2026-05-04 13:37 49.99185 6.07393 32996 ft 456 kts 122°
2026-05-04 13:38 49.96350 6.16194 32995 ft 454 kts 122°
2026-05-04 13:38 49.93506 6.24943 33006 ft 452 kts 122°
2026-05-04 13:39 49.90666 6.33637 32997 ft 451 kts 122°
2026-05-04 13:39 49.87848 6.42238 32991 ft 449 kts 122°
2026-05-04 13:40 49.85013 6.50861 32994 ft 450 kts 122°
2026-05-04 13:40 49.82157 6.59520 32987 ft 451 kts 122°
2026-05-04 13:41 49.79286 6.68194 32994 ft 454 kts 122°
2026-05-04 13:41 49.76390 6.76912 32978 ft 456 kts 122°
2026-05-04 13:42 49.72514 6.88540 32993 ft 458 kts 122°
2026-05-04 13:42 49.69585 6.97294 32994 ft 459 kts 122°
2026-05-04 13:43 49.66643 7.06054 33003 ft 460 kts 122°
2026-05-04 13:43 49.63700 7.14786 33006 ft 461 kts 122°
2026-05-04 13:44 49.60734 7.23557 32976 ft 461 kts 122°
2026-05-04 13:44 49.57762 7.32314 32993 ft 460 kts 123°
2026-05-04 13:45 49.54789 7.41045 32997 ft 460 kts 123°
2026-05-04 13:45 49.51807 7.49773 32998 ft 460 kts 123°
2026-05-04 13:46 49.48824 7.58473 32995 ft 460 kts 123°
2026-05-04 13:46 49.45839 7.67151 32990 ft 458 kts 123°
2026-05-04 13:47 49.42854 7.75798 32999 ft 458 kts 123°
2026-05-04 13:47 49.39862 7.84434 32991 ft 458 kts 123°
2026-05-04 13:48 49.36868 7.93048 33003 ft 458 kts 123°
2026-05-04 13:48 49.33863 8.01665 32991 ft 458 kts 123°
2026-05-04 13:49 49.30852 8.10272 32985 ft 458 kts 123°
2026-05-04 13:49 49.27826 8.18889 33003 ft 460 kts 123°
2026-05-04 13:50 49.24795 8.27493 32980 ft 464 kts 123°
2026-05-04 13:50 49.21718 8.36202 32988 ft 466 kts 123°
2026-05-04 13:51 49.18624 8.44932 32983 ft 467 kts 123°
2026-05-04 13:51 49.15526 8.53643 32984 ft 466 kts 123°
2026-05-04 13:52 49.10880 8.66672 32988 ft 465 kts 122°
2026-05-04 13:53 49.08058 8.75595 32995 ft 466 kts 119°
2026-05-04 13:53 49.05382 8.84590 32973 ft 465 kts 118°
2026-05-04 13:54 49.01330 8.98017 32984 ft 464 kts 119°
2026-05-04 13:55 48.97227 9.11377 32980 ft 464 kts 119°
2026-05-04 13:55 48.93102 9.24721 32961 ft 465 kts 119°
2026-05-04 13:56 48.90341 9.33622 32968 ft 465 kts 119°
2026-05-04 13:57 48.86200 9.46910 32978 ft 465 kts 119°
2026-05-04 13:58 48.80635 9.64656 32976 ft 465 kts 119°
2026-05-04 13:58 48.76462 9.77885 32986 ft 465 kts 119°
2026-05-04 13:59 48.73668 9.86707 32978 ft 464 kts 119°
2026-05-04 14:00 48.69356 9.99829 32990 ft 464 kts 121°
2026-05-04 14:00 48.64882 10.12805 32988 ft 463 kts 121°
2026-05-04 14:01 48.61910 10.21439 33000 ft 462 kts 120°
2026-05-04 14:02 48.57468 10.34350 32992 ft 461 kts 121°
2026-05-04 14:02 48.54505 10.42932 32985 ft 460 kts 121°
2026-05-04 14:03 48.51543 10.51480 32994 ft 460 kts 120°
2026-05-04 14:03 48.48576 10.60015 32983 ft 459 kts 121°
2026-05-04 14:04 48.44118 10.72786 32978 ft 459 kts 121°
2026-05-04 14:04 48.41134 10.81297 32982 ft 461 kts 121°
2026-05-04 14:05 48.36632 10.94086 32958 ft 463 kts 121°
2026-05-04 14:06 48.33611 11.02637 32973 ft 462 kts 121°
2026-05-04 14:06 48.30587 11.11166 32969 ft 462 kts 121°
2026-05-04 14:07 48.27555 11.19688 32970 ft 462 kts 121°
2026-05-04 14:07 48.24518 11.28199 32970 ft 462 kts 121°
2026-05-04 14:08 48.21472 11.36705 32966 ft 463 kts 121°
2026-05-04 14:08 48.18405 11.45241 33039 ft 468 kts 121°
2026-05-04 14:08 48.16856 11.49540 33190 ft 469 kts 121°
2026-05-04 14:09 48.13760 11.58119 33733 ft 466 kts 121°
2026-05-04 14:09 48.12218 11.62382 33977 ft 465 kts 121°
2026-05-04 14:10 48.09133 11.70889 34290 ft 465 kts 121°
2026-05-04 14:10 48.07587 11.75138 34469 ft 465 kts 121°
2026-05-04 14:10 48.06041 11.79383 34645 ft 464 kts 121°
2026-05-04 14:10 48.04518 11.83560 34809 ft 464 kts 121°
2026-05-04 14:11 48.02970 11.87795 34922 ft 462 kts 121°
2026-05-04 14:11 47.98341 12.00423 34929 ft 462 kts 121°
2026-05-04 14:12 47.95241 12.08847 34934 ft 463 kts 121°
2026-05-04 14:13 47.90577 12.21471 34921 ft 463 kts 121°
2026-05-04 14:13 47.87460 12.29874 34925 ft 463 kts 121°
2026-05-04 14:14 47.84354 12.38222 34924 ft 463 kts 121°
2026-05-04 14:14 47.79661 12.50783 34918 ft 463 kts 121°
2026-05-04 14:15 47.73386 12.67495 34920 ft 462 kts 121°
2026-05-04 14:16 47.68611 12.79917 34912 ft 459 kts 127°
2026-05-04 14:17 47.64404 12.86854 34934 ft 454 kts 138°
2026-05-04 14:17 47.62142 12.90114 34918 ft 454 kts 138°
2026-05-04 14:18 47.55365 12.99957 34925 ft 455 kts 137°
2026-05-04 14:19 47.46381 13.13158 34943 ft 455 kts 137°
2026-05-04 14:19 47.41884 13.19746 34953 ft 455 kts 137°
2026-05-04 14:20 47.37384 13.26322 34963 ft 456 kts 137°
2026-05-04 14:20 47.32905 13.32965 34967 ft 458 kts 133°
2026-05-04 14:21 47.27548 13.44703 34973 ft 462 kts 124°
2026-05-04 14:21 47.24114 13.52697 34998 ft 462 kts 124°
2026-05-04 14:22 47.20662 13.60610 34999 ft 462 kts 125°
2026-05-04 14:22 47.17156 13.68558 34985 ft 464 kts 125°
2026-05-04 14:23 47.11866 13.80474 35002 ft 464 kts 125°
2026-05-04 14:24 47.08329 13.88414 35007 ft 465 kts 125°
2026-05-04 14:24 47.04780 13.96363 35010 ft 466 kts 125°
2026-05-04 14:25 47.01223 14.04307 35016 ft 466 kts 125°
2026-05-04 14:25 46.95872 14.16215 35015 ft 467 kts 125°
2026-05-04 14:26 46.92288 14.24160 35016 ft 468 kts 125°
2026-05-04 14:26 46.88695 14.32102 35017 ft 468 kts 125°
2026-05-04 14:27 46.85094 14.40042 35022 ft 468 kts 125°
2026-05-04 14:27 46.81492 14.47959 35016 ft 468 kts 125°
2026-05-04 14:28 46.78491 14.54541 35020 ft 468 kts 125°
2026-05-04 14:28 46.74287 14.63732 35025 ft 469 kts 125°
2026-05-04 14:29 46.67619 14.78245 35012 ft 469 kts 125°
2026-05-04 14:30 46.63981 14.86135 35026 ft 469 kts 125°
2026-05-04 14:31 46.58541 14.97888 35021 ft 469 kts 125°
2026-05-04 14:32 46.51214 15.13639 35009 ft 471 kts 125°
2026-05-04 14:32 46.47537 15.21511 35015 ft 472 kts 125°
2026-05-04 14:33 46.43844 15.29395 35006 ft 473 kts 125°
2026-05-04 14:33 46.40137 15.37286 35014 ft 473 kts 125°
2026-05-04 14:34 46.36452 15.45111 35014 ft 474 kts 124°
2026-05-04 14:34 46.32735 15.52978 35010 ft 474 kts 125°
2026-05-04 14:35 46.29010 15.60842 35010 ft 473 kts 125°
2026-05-04 14:35 46.25289 15.68673 35007 ft 472 kts 125°
2026-05-04 14:36 46.21573 15.76474 35016 ft 471 kts 125°
2026-05-04 14:36 46.17863 15.84241 35022 ft 469 kts 125°
2026-05-04 14:37 46.14156 15.91985 35022 ft 468 kts 124°
2026-05-04 14:37 46.10487 15.99677 35025 ft 468 kts 125°
2026-05-04 14:38 46.06768 16.07365 35024 ft 467 kts 125°
2026-05-04 14:38 46.03047 16.15047 35026 ft 467 kts 125°
2026-05-04 14:39 45.99326 16.22723 35029 ft 467 kts 125°
2026-05-04 14:39 45.95600 16.30396 35039 ft 468 kts 125°
2026-05-04 14:40 45.90017 16.41856 35037 ft 469 kts 125°
2026-05-04 14:40 45.86261 16.49538 35033 ft 470 kts 125°
2026-05-04 14:41 45.82497 16.57215 35035 ft 471 kts 125°
2026-05-04 14:42 45.74932 16.72583 35040 ft 472 kts 124°
2026-05-04 14:42 45.71135 16.80265 35034 ft 473 kts 125°
2026-05-04 14:43 45.67331 16.87942 35032 ft 472 kts 125°
2026-05-04 14:43 45.63549 16.95552 35038 ft 472 kts 125°
2026-05-04 14:44 45.59741 17.03193 35046 ft 472 kts 124°
2026-05-04 14:44 45.55929 17.10823 35045 ft 472 kts 124°
2026-05-04 14:45 45.52110 17.18445 35046 ft 472 kts 124°
2026-05-04 14:45 45.48287 17.26056 35047 ft 471 kts 124°
2026-05-04 14:46 45.44467 17.33640 35056 ft 471 kts 124°
2026-05-04 14:46 45.40673 17.41153 35052 ft 470 kts 124°
2026-05-04 14:47 45.36846 17.48711 35042 ft 470 kts 124°
2026-05-04 14:47 45.33025 17.56237 35048 ft 469 kts 124°
2026-05-04 14:48 45.29199 17.63754 35045 ft 469 kts 124°
2026-05-04 14:48 45.25368 17.71260 35050 ft 469 kts 124°
2026-05-04 14:49 45.21540 17.78741 35051 ft 468 kts 124°
2026-05-04 14:49 45.17708 17.86209 35046 ft 468 kts 125°
2026-05-04 14:50 45.13904 17.93605 35044 ft 467 kts 125°
2026-05-04 14:50 45.10068 18.01041 35051 ft 467 kts 124°
2026-05-04 14:51 45.06230 18.08466 35053 ft 468 kts 125°
2026-05-04 14:51 45.02376 18.15899 35053 ft 468 kts 125°
2026-05-04 14:52 44.98521 18.23317 35055 ft 468 kts 125°
2026-05-04 14:52 44.94658 18.30731 35060 ft 469 kts 124°
2026-05-04 14:53 44.90784 18.38145 35053 ft 469 kts 125°
2026-05-04 14:53 44.86908 18.45546 35057 ft 469 kts 125°
2026-05-04 14:54 44.83020 18.52952 35056 ft 470 kts 125°
2026-05-04 14:54 44.79154 18.60299 35064 ft 470 kts 124°
2026-05-04 14:55 44.75640 18.68018 35073 ft 468 kts 117°
2026-05-04 14:55 44.72515 18.76052 35058 ft 468 kts 116°
2026-05-04 14:56 44.69386 18.84101 35064 ft 469 kts 117°
2026-05-04 14:56 44.66211 18.92105 35066 ft 469 kts 117°
2026-05-04 14:57 44.63003 19.00098 35066 ft 469 kts 117°
2026-05-04 14:57 44.59795 19.08057 35069 ft 469 kts 117°
2026-05-04 14:58 44.56583 19.16010 35073 ft 468 kts 117°
2026-05-04 14:58 44.53362 19.23964 35070 ft 469 kts 117°
2026-05-04 14:59 44.50140 19.31901 35062 ft 469 kts 117°
2026-05-04 15:00 44.45316 19.43741 35072 ft 468 kts 117°
2026-05-04 15:00 44.42081 19.51653 35084 ft 469 kts 117°
2026-05-04 15:01 44.37216 19.63511 35079 ft 469 kts 117°
2026-05-04 15:01 44.33965 19.71408 35085 ft 469 kts 117°
2026-05-04 15:02 44.30709 19.79295 35096 ft 469 kts 117°
2026-05-04 15:02 44.27442 19.87187 35082 ft 469 kts 117°
2026-05-04 15:03 44.24169 19.95071 35084 ft 470 kts 117°
2026-05-04 15:03 44.20908 20.02904 35088 ft 470 kts 117°
2026-05-04 15:04 44.17620 20.10785 35102 ft 470 kts 117°
2026-05-04 15:04 44.14324 20.18663 35098 ft 471 kts 117°
2026-05-04 15:05 44.10858 20.26424 35097 ft 472 kts 120°
2026-05-04 15:05 44.07221 20.34059 35092 ft 473 kts 121°
2026-05-04 15:06 44.03597 20.41693 35110 ft 473 kts 120°
2026-05-04 15:07 43.98193 20.53183 35107 ft 473 kts 120°
2026-05-04 15:07 43.94613 20.60788 35102 ft 472 kts 120°
2026-05-04 15:08 43.91019 20.68401 35109 ft 472 kts 120°
2026-05-04 15:08 43.87416 20.76010 35101 ft 471 kts 120°
2026-05-04 15:09 43.83818 20.83588 35091 ft 470 kts 120°
2026-05-04 15:09 43.80222 20.91148 35094 ft 469 kts 120°
2026-05-04 15:10 43.74987 21.02577 35110 ft 467 kts 117°
2026-05-04 15:11 43.70105 21.14246 35096 ft 467 kts 116°
2026-05-04 15:11 43.66828 21.21985 35098 ft 467 kts 117°
2026-05-04 15:12 43.63519 21.29709 35110 ft 467 kts 117°
2026-05-04 15:12 43.60196 21.37422 35100 ft 467 kts 117°
2026-05-04 15:13 43.56897 21.45059 35090 ft 466 kts 117°
2026-05-04 15:13 43.53576 21.52732 35093 ft 465 kts 117°
2026-05-04 15:14 43.50259 21.60376 35093 ft 465 kts 117°
2026-05-04 15:14 43.46941 21.68003 35071 ft 464 kts 117°
2026-05-04 15:15 43.43629 21.75595 35077 ft 462 kts 117°
2026-05-04 15:15 43.40317 21.83167 35077 ft 461 kts 117°
2026-05-04 15:16 43.35349 21.94492 35075 ft 460 kts 117°
2026-05-04 15:17 43.30399 22.05728 35082 ft 460 kts 117°
2026-05-04 15:17 43.25977 22.15734 35088 ft 461 kts 118°
2026-05-04 15:18 43.22645 22.23248 35096 ft 461 kts 118°
2026-05-04 15:19 43.17625 22.34533 35084 ft 462 kts 118°
2026-05-04 15:19 43.12594 22.45802 35102 ft 462 kts 119°
2026-05-04 15:20 43.09261 22.53243 35092 ft 461 kts 119°
2026-05-04 15:20 43.05909 22.60707 35097 ft 460 kts 119°
2026-05-04 15:21 43.02557 22.68156 35093 ft 459 kts 119°
2026-05-04 15:22 42.97454 22.79198 35093 ft 458 kts 126°
2026-05-04 15:22 42.90544 22.88154 35097 ft 456 kts 137°
2026-05-04 15:23 42.85769 22.93817 35095 ft 454 kts 137°
2026-05-04 15:23 42.81053 22.99483 35095 ft 451 kts 136°
2026-05-04 15:24 42.71739 23.10716 35099 ft 447 kts 137°
2026-05-04 15:25 42.67089 23.16309 35103 ft 446 kts 137°
2026-05-04 15:26 42.60119 23.24669 35099 ft 445 kts 138°
2026-05-04 15:26 42.53208 23.33058 35099 ft 444 kts 136°
2026-05-04 15:27 42.46456 23.41632 35101 ft 445 kts 136°
2026-05-04 15:28 42.39648 23.50232 35110 ft 447 kts 136°
2026-05-04 15:29 42.32781 23.58844 35101 ft 450 kts 136°
2026-05-04 15:30 42.16635 23.78980 35092 ft 454 kts 136°
2026-05-04 15:31 42.09676 23.87614 35088 ft 451 kts 136°
2026-05-04 15:32 41.98173 24.01828 35073 ft 447 kts 137°
2026-05-04 15:34 41.86761 24.15858 35070 ft 444 kts 135°
2026-05-04 15:34 41.79940 24.24211 35079 ft 445 kts 136°
2026-05-04 15:35 41.73056 24.32617 35084 ft 447 kts 136°
2026-05-04 15:36 41.66131 24.41044 35075 ft 450 kts 136°
2026-05-04 15:36 41.61485 24.46686 35055 ft 452 kts 134°
2026-05-04 15:37 41.56821 24.52335 35057 ft 453 kts 135°
2026-05-04 15:37 41.52147 24.57982 35051 ft 454 kts 136°
2026-05-04 15:38 41.47463 24.63638 35055 ft 454 kts 136°
2026-05-04 15:38 41.42780 24.69279 35043 ft 453 kts 136°
2026-05-04 15:39 41.38110 24.74850 35040 ft 452 kts 136°
2026-05-04 15:40 41.31067 24.83163 35040 ft 450 kts 135°
2026-05-04 15:40 41.26380 24.88687 35040 ft 449 kts 135°
2026-05-04 15:41 41.21704 24.94194 35037 ft 449 kts 136°
2026-05-04 15:41 41.17036 24.99683 35037 ft 448 kts 136°
2026-05-04 15:42 41.12369 25.05159 35040 ft 447 kts 136°
2026-05-04 15:42 41.07705 25.10622 35034 ft 447 kts 136°
2026-05-04 15:43 41.03046 25.16068 35034 ft 446 kts 136°
2026-05-04 15:43 40.98385 25.21506 35038 ft 446 kts 136°
2026-05-04 15:44 40.93719 25.26940 35033 ft 447 kts 136°
2026-05-04 15:44 40.89134 25.32422 35038 ft 447 kts 132°
2026-05-04 15:45 40.84911 25.38444 35046 ft 447 kts 129°
2026-05-04 15:45 40.80750 25.44556 35041 ft 448 kts 129°
2026-05-04 15:46 40.76546 25.50631 35041 ft 448 kts 130°
2026-05-04 15:46 40.72314 25.56675 35044 ft 449 kts 130°
2026-05-04 15:47 40.68066 25.62716 35043 ft 449 kts 130°
2026-05-04 15:47 40.63812 25.68757 35047 ft 450 kts 130°
2026-05-04 15:48 40.59554 25.74793 35046 ft 450 kts 130°
2026-05-04 15:48 40.53149 25.83853 35044 ft 451 kts 130°
2026-05-04 15:49 40.48886 25.89894 35043 ft 451 kts 129°
2026-05-04 15:49 40.44743 25.96071 35055 ft 450 kts 128°
2026-05-04 15:50 40.40629 26.02282 35047 ft 451 kts 128°
2026-05-04 15:50 40.36494 26.08476 35036 ft 452 kts 128°
2026-05-04 15:51 40.32369 26.14618 35049 ft 452 kts 128°
2026-05-04 15:51 40.28210 26.20795 35047 ft 452 kts 128°
2026-05-04 15:52 40.24044 26.26971 35085 ft 453 kts 128°
2026-05-04 15:52 40.19859 26.33163 35090 ft 455 kts 128°
2026-05-04 15:53 40.15659 26.39368 35077 ft 455 kts 128°
2026-05-04 15:53 40.11365 26.45478 35080 ft 457 kts 131°
2026-05-04 15:54 40.06812 26.51289 35070 ft 458 kts 132°
2026-05-04 15:54 40.02226 26.57063 35068 ft 458 kts 132°
2026-05-04 15:55 39.97688 26.62835 35054 ft 459 kts 132°
2026-05-04 15:55 39.93119 26.68670 35054 ft 459 kts 132°
2026-05-04 15:56 39.88552 26.74494 35058 ft 459 kts 132°
2026-05-04 15:56 39.83978 26.80314 35060 ft 460 kts 132°
2026-05-04 15:57 39.79405 26.86122 35064 ft 460 kts 132°
2026-05-04 15:57 39.74809 26.91915 35079 ft 461 kts 133°
2026-05-04 15:58 39.70143 26.97641 35080 ft 462 kts 133°
2026-05-04 15:58 39.65464 27.03361 35075 ft 462 kts 133°
2026-05-04 15:59 39.60787 27.09089 35076 ft 462 kts 133°
2026-05-04 15:59 39.56111 27.14813 35075 ft 462 kts 133°
2026-05-04 16:00 39.51427 27.20535 35056 ft 463 kts 133°
2026-05-04 16:00 39.47055 27.26608 35062 ft 460 kts 125°
2026-05-04 16:01 39.43071 27.33087 35056 ft 461 kts 125°
2026-05-04 16:01 39.39015 27.39538 35045 ft 463 kts 126°
2026-05-04 16:02 39.34899 27.45962 35047 ft 463 kts 126°
2026-05-04 16:03 39.28713 27.55577 35055 ft 464 kts 126°
2026-05-04 16:03 39.24579 27.61994 35054 ft 465 kts 126°
2026-05-04 16:04 39.20442 27.68405 35054 ft 465 kts 126°
2026-05-04 16:04 39.14929 27.76930 35053 ft 465 kts 126°
2026-05-04 16:05 39.10781 27.83331 35059 ft 465 kts 126°
2026-05-04 16:06 39.03868 27.93957 35057 ft 466 kts 126°
2026-05-04 16:07 38.96221 28.05666 35055 ft 465 kts 126°
2026-05-04 16:08 38.87862 28.18425 35054 ft 468 kts 127°
2026-05-04 16:09 38.77321 28.34443 35048 ft 471 kts 127°
2026-05-04 16:10 38.68812 28.47315 35055 ft 475 kts 127°
2026-05-04 16:11 38.60399 28.59993 35049 ft 477 kts 127°
2026-05-04 16:12 38.52772 28.68379 35064 ft 483 kts 143°
2026-05-04 16:12 38.44467 28.75632 35048 ft 481 kts 144°
2026-05-04 16:13 38.33567 28.85324 35055 ft 477 kts 143°
2026-05-04 16:14 38.22718 28.94981 35040 ft 474 kts 143°
2026-05-04 16:16 38.09211 29.06946 35048 ft 473 kts 144°
2026-05-04 16:17 37.95630 29.18922 35041 ft 477 kts 144°
2026-05-04 16:18 37.84688 29.28532 35053 ft 481 kts 145°
2026-05-04 16:19 37.70834 29.40633 35040 ft 487 kts 145°
2026-05-04 16:20 37.56973 29.52691 35018 ft 478 kts 145°
2026-05-04 16:22 37.43211 29.64608 35029 ft 486 kts 146°
2026-05-04 16:23 37.26381 29.79134 35006 ft 491 kts 145°
2026-05-04 16:25 37.09513 29.93658 34993 ft 488 kts 146°
2026-05-04 16:26 36.89924 30.10335 34971 ft 485 kts 146°
2026-05-04 16:28 36.75977 30.22163 34942 ft 484 kts 146°
2026-05-04 16:29 36.56568 30.38563 34930 ft 481 kts 147°
2026-05-04 16:31 36.42708 30.50212 34905 ft 480 kts 147°
2026-05-04 16:32 36.26134 30.64076 34867 ft 479 kts 148°
2026-05-04 16:33 36.15078 30.73285 34870 ft 478 kts 148°
2026-05-04 16:34 36.06726 30.80048 34853 ft 477 kts 155°
2026-05-04 16:35 35.97261 30.82984 34872 ft 466 kts 181°
2026-05-04 16:35 35.87588 30.83433 34859 ft 466 kts 181°
2026-05-04 16:36 35.77865 30.84005 34848 ft 466 kts 181°
2026-05-04 16:37 35.68159 30.84676 34844 ft 468 kts 174°
2026-05-04 16:37 35.62342 30.88278 34851 ft 482 kts 137°
2026-05-04 16:38 35.58930 30.95149 34626 ft 470 kts 108°
2026-05-04 16:39 35.56176 31.06435 33509 ft 456 kts 106°
2026-05-04 16:39 35.54363 31.13843 32688 ft 449 kts 107°
2026-05-04 16:40 35.52524 31.21114 31981 ft 440 kts 107°
2026-05-04 16:40 35.50700 31.28227 31247 ft 434 kts 107°
2026-05-04 16:41 35.48892 31.35251 30505 ft 428 kts 107°
2026-05-04 16:41 35.46243 31.45521 29405 ft 418 kts 106°
2026-05-04 16:42 35.43629 31.55629 28002 ft 413 kts 107°
2026-05-04 16:43 35.41894 31.62312 27147 ft 409 kts 107°
2026-05-04 16:43 35.40172 31.68931 26297 ft 406 kts 107°
2026-05-04 16:43 35.39313 31.72224 25901 ft 404 kts 107°
2026-05-04 16:44 35.35916 31.85213 24343 ft 399 kts 107°
2026-05-04 16:45 35.34223 31.91663 23615 ft 396 kts 107°
2026-05-04 16:46 35.31705 32.01232 22426 ft 390 kts 107°
2026-05-04 16:46 35.30045 32.07527 21655 ft 387 kts 108°
2026-05-04 16:47 35.28414 32.13771 20900 ft 383 kts 108°
2026-05-04 16:47 35.26800 32.19958 20176 ft 380 kts 108°
2026-05-04 16:48 35.24404 32.29109 19110 ft 376 kts 108°
2026-05-04 16:48 35.23602 32.32162 18766 ft 374 kts 108°
2026-05-04 16:49 35.22014 32.38201 18095 ft 371 kts 108°
2026-05-04 16:49 35.20438 32.44179 17394 ft 367 kts 108°
2026-05-04 16:50 35.18859 32.50151 16282 ft 366 kts 108°
2026-05-04 16:50 35.17304 32.56023 15542 ft 362 kts 108°
2026-05-04 16:51 35.15757 32.61854 14852 ft 359 kts 109°
2026-05-04 16:51 35.15000 32.64704 14504 ft 355 kts 109°
2026-05-04 16:51 35.13484 32.70390 13846 ft 350 kts 109°
2026-05-04 16:52 35.11987 32.76001 13180 ft 345 kts 109°
2026-05-04 16:52 35.11486 32.77876 12951 ft 344 kts 109°
2026-05-04 16:53 35.10018 32.83363 12288 ft 340 kts 109°
2026-05-04 16:53 35.07824 32.91545 11301 ft 335 kts 109°
2026-05-04 16:54 35.07098 32.94235 10972 ft 333 kts 109°
2026-05-04 16:55 35.04121 33.04579 10155 ft 309 kts 110°
2026-05-04 16:55 35.02727 33.09471 9629 ft 305 kts 105°
2026-05-04 16:56 35.02176 33.14587 8999 ft 303 kts 95°
2026-05-04 16:56 35.01711 33.22079 7952 ft 288 kts 87°
2026-05-04 16:57 35.01817 33.24496 7594 ft 283 kts 85°
2026-05-04 16:57 35.02070 33.29205 6956 ft 272 kts 85°
2026-05-04 16:58 35.02458 33.36014 6168 ft 266 kts 85°
2026-05-04 16:58 35.02587 33.38261 5901 ft 264 kts 85°
2026-05-04 16:59 35.02840 33.42687 5388 ft 261 kts 85°
2026-05-04 17:00 35.03323 33.51482 4365 ft 258 kts 85°
2026-05-04 17:00 35.03654 33.57981 3628 ft 252 kts 85°
2026-05-04 17:01 35.03867 33.62208 3206 ft 247 kts 85°
2026-05-04 17:01 35.04034 33.66304 2723 ft 234 kts 85°
2026-05-04 17:02 35.03886 33.70114 2328 ft 218 kts 117°
2026-05-04 17:02 35.01654 33.71789 2012 ft 181 kts 183°
2026-05-04 17:03 35.00439 33.71823 1949 ft 171 kts 185°
2026-05-04 17:03 34.99250 33.71835 1971 ft 172 kts 184°
2026-05-04 17:03 34.96860 33.71828 1982 ft 168 kts 185°
2026-05-04 17:04 34.94657 33.71352 1707 ft 153 kts 231°
2026-05-04 17:04 34.93248 33.69600 1328 ft 143 kts 229°
2026-05-04 17:05 34.91797 33.67829 992 ft 159 kts 228°
2026-05-04 17:05 34.90244 33.65925 581 ft 156 kts 228°
2026-05-04 17:06 34.88780 33.64113 174 ft 145 kts 226°
2026-05-04 17:06 34.88070 33.63257 30 ft 140 kts 225°
2026-05-04 17:07 34.87089 33.62043 21 ft 38 kts 225°
2026-05-04 17:07 34.87004 33.61908 21 ft 29 kts 245°
2026-05-04 17:07 34.86929 33.61610 20 ft 21 kts 253°
2026-05-04 17:07 34.86917 33.61559 21 ft 1 kts 253°
2026-05-04 17:08 34.86914 33.61548 20 ft 1 kts 253°
2026-05-04 17:08 34.86908 33.61526 20 ft 1 kts 253°
2026-05-04 17:08 34.86906 33.61516 20 ft 1 kts 253°
2026-05-04 17:09 34.86901 33.61493 21 ft 5 kts 257°
2026-05-04 17:09 34.86884 33.61432 21 ft 8 kts 244°
2026-05-04 17:09 34.86892 33.61366 19 ft 8 kts 306°
2026-05-04 17:10 34.86916 33.61333 19 ft 0 kts 313°
2026-05-04 17:10 34.86911 33.61322 21 ft 3 kts 224°
2026-05-04 17:11 34.86886 33.61296 19 ft 6 kts 221°
2026-05-04 17:11 34.86850 33.61254 20 ft 9 kts 224°
2026-05-04 17:11 34.86760 33.61143 19 ft 8 kts 225°
2026-05-04 17:12 34.86720 33.61093 20 ft 8 kts 225°
2026-05-04 17:12 34.86644 33.60968 19 ft 10 kts 280°
2026-05-04 17:13 34.86784 33.60785 21 ft 9 kts 315°
2026-05-04 17:14 34.86809 33.60754 19 ft 0 kts 315°
2026-05-04 17:15 34.86819 33.60745 19 ft 3 kts 326°
2026-05-04 17:15 34.86871 33.60759 19 ft 5 kts 42°
2026-05-04 17:16 34.86923 33.60822 19 ft 4 kts 44°
2026-05-04 17:16 34.86949 33.60854 19 ft 1 kts 45°
2026-05-04 17:17 34.86952 33.60858 19 ft 0 kts 45°